This is the latest recevied weather packets stored in our database for station/object KD0SBN. If no packets are shown the sender has not sent any weather packets the latest 10 day(s).
| Time | Temp. | Humidity | Pressure | Rain* | Wind** | Luminosity | Snow |
|---|---|---|---|---|---|---|---|
| 1777659476 | 13.89° C | 50% | 1020.8 hPa | 0 mm | - | - | - |
| 1777659174 | 14.44° C | 53% | 1020.7 hPa | 0 mm | - | - | - |
| 1777658872 | 12.22° C | 51% | 1020.8 hPa | 0 mm | - | - | - |
| 1777658567 | 12.78° C | 52% | 1020.8 hPa | 0 mm | - | - | - |
| 1777658264 | 12.22° C | 52% | 1021.2 hPa | 0 mm | - | - | - |
| 1777657962 | 12.22° C | 53% | 1021.1 hPa | 0 mm | - | - | - |
| 1777657658 | 12.78° C | 51% | 1021 hPa | 0 mm | - | - | - |
| 1777657355 | 12.22° C | 50% | 1021.4 hPa | 0 mm | - | - | - |
| 1777657053 | 12.22° C | 49% | 1021.3 hPa | 0 mm | - | - | - |
| 1777656750 | 11.67° C | 51% | 1021.4 hPa | 0 mm | - | - | - |
| 1777656446 | 11.67° C | 53% | 1021 hPa | 0 mm | - | - | - |
| 1777656140 | 12.78° C | 53% | 1021.4 hPa | 0 mm | - | - | - |
| 1777655837 | 12.78° C | 52% | 1021.3 hPa | 0 mm | - | - | - |
| 1777655535 | 12.22° C | 53% | 1021.2 hPa | 0 mm | - | - | - |
| 1777655231 | 12.78° C | 53% | 1021.3 hPa | 0 mm | - | - | - |
| 1777654928 | 12.78° C | 53% | 1021.3 hPa | 0 mm | - | - | - |
| 1777654625 | 12.78° C | 53% | 1021.3 hPa | 0 mm | - | - | - |
| 1777654322 | 12.22° C | 55% | 1021.4 hPa | 0 mm | - | - | - |
| 1777654020 | 13.33° C | 54% | 1021.3 hPa | 0 mm | - | - | - |
| 1777653717 | 12.22° C | 54% | 1021.2 hPa | 0 mm | - | - | - |
| 1777653413 | 12.78° C | 53% | 1021.3 hPa | 0 mm | - | - | - |
| 1777653110 | 12.22° C | 54% | 1021.2 hPa | 0 mm | - | - | - |
| 1777652806 | 11.67° C | 57% | 1021.4 hPa | 0 mm | - | - | - |
| 1777652503 | 12.22° C | 57% | 1021.2 hPa | 0 mm | - | - | - |
| 1777652200 | 11.67° C | 59% | 1021.3 hPa | 0 mm | - | - | - |
* Rain latest hour (hover to see other rain measurements)
** Current wind speed in m/s (hover to see current wind gust speed)